COSMOS 1412

Satellite information

Favourite Embed

Satellite Type and Status

PAYLOADIN ORBIT

Key statistics

Satellite COSMOS 1412 at a glance.

Uptime

15779

Days in orbit

Revolutions

≈ 13.9

Per day

Orbit

LEO

Low Earth Orbit

Inclination

64.8

Latest

Satellite identification and parameters

Extended collection of information and parameters for COSMOS 1412.

Object identification

Identified? True

Debris? False

Object name: COSMOS 1412

International designator: 1982-099A

Object number (NORAD): 13600

Object ID (CCSDS): 13600

Country: COMMONWEALTH OF INDEPENDENT STATES (CIS)

Current information (Y/N): Y

RCS size: LARGE

Orbital parameters

Period: 103.868 minutes

Inclination: 64.8133 deg

SMA: 7319.509 km

Apoapsis: 970.29 km

Periapsis: 912.457 km

RAAN: 126.4838 deg

Eccentricy: 0.0039506

Argument of periapsis: 90.1336 deg

Mean anomaly: 281.6384 deg

Mean motion: 13.86372225 rev/day

Mean motion (dot): -0.00000036 rev/day2

B* drag term: 0.000046666727 1/REarth

Two-line elements (TLE)

Creation date: Dec. 14, 2025, 3:07 a.m.

Reference frame: TEME

Reference center: EARTH

Epoch: Dec. 13, 2025, 3:43 p.m. UTC

TLE line 0: 0 COSMOS 1412

TLE line 1: 1 13600U 82099A 25347.65493199 -.00000036 00000-0 46667-4 0 9998

TLE line 2: 2 13600 64.8133 126.4838 0039506 90.1336 281.6384 13.86372225173983

Live tracking on map

Real-time ground track for satellite COSMOS 1412.

In-orbit conjunctions

A list of the most updated potential collisions computed for object COSMOS 1412.

Target Orbit TCA Probability of collision Miss distance Type
DELTA 1 DEB SSO 2024-10-06 07:03:15 0.0001132831 932.0 (m) DEBRIS

Associated space launch

Active radar satellite for ocean surveillance powered by a nuclear reactor.

COSMOS 1412 was lifted into orbit during the mission ‘Tsiklon-2 | US-A 23’, on board a Tsiklon-2 space rocket.

The launch took place on Oct. 2, 1982, 12:01 a.m. from 90.

For more information about the launch, click the button.

Launch to space Tsiklon-2 | US-A 23
Tsiklon-2 | US-A 23

Agency: N/A

Status: Launch Successful

Launch date: Oct. 2, 1982, 12:01 a.m. UTC

Rocket: Tsiklon-2

Launch pad: 90

Location: Baikonur Cosmodrome, Republic of Kazakhstan

...

Latest news about this satellite

There are no fresh news available about this satellite. Check back as we update our databases every day.


Newsletter sign-up

Weekly statistics, charts and insights to help you stay on top of the space industry.